Flag for United Kingdom Weather past 2 weeks in Reading, England, United Kingdom

Now
43 °F

Passing clouds.


Feels Like: 39 °F
Forecast: N/A
Wind: 6 mph from West

Location: Benson

Current Time: Dec 25, 2014 at 4:26:10 PM

Latest Report: Dec 25, 2014 at 3:50 PM


Visibility: N/A

Pressure: 30.42 "Hg

Humidity: 87%

Dew point: 39 °F

Location of ReadingLocation

Historic Weather in Reading — Graph

°F

Reading temperature yesterday

Maximum temperature yesterday: 52 °F (at 12:50 AM)
Minimum temperature yesterday: 37 °F (at 4:50 PM)
Average temperature yesterday: 45 °F

Past Weeks' High & Low Weather Summary

 TemperatureHumidityPressure
High55 °F (Dec 17, 12:50 PM)100% (Dec 13, 5:50 AM)30.45 "Hg (Dec 13, 5:50 AM)
Low23 °F (Dec 13, 8:50 AM)58% (Dec 19, 2:50 PM)29.24 "Hg (Dec 12, 5:50 AM)
Average45 °F86%29.94 "Hg
* Reported Dec 10 2:50 PM — Dec 25 2:50 PM, Reading, Weather by CustomWeather, © 2014

Note: Actual official high and low records may vary slightly from our data, if they occured in-between our weather recording intervals... More about our weather records

Advertising

Reading weather history for previous 24 hours

 ConditionsComfort  
Time TempWeatherWind HumidityBarometerVisibility
2:50 PM
Dec 25
45 °FSunny.6 mph87%30.42 "HgN/A
1:50 PM45 °FSunny.9 mph87%30.42 "HgN/A
12:50 PM45 °FSunny.9 mph87%30.39 "HgN/A
11:50 AM45 °FSunny.10 mph87%30.39 "HgN/A
10:50 AM43 °FSunny.5 mph93%30.39 "HgN/A
9:50 AM41 °FSunny.2 mph93%30.39 "HgN/A
8:50 AM37 °FSunny.2 mph100%30.36 "HgN/A
7:50 AM36 °FClear.3 mph100%30.33 "HgN/A
6:50 AM36 °FClear.1 mph100%30.33 "HgN/A
5:50 AM37 °FClear.2 mph93%30.30 "HgN/A
4:50 AM39 °FClear.6 mph100%30.27 "HgN/A
3:50 AM37 °FClear.5 mph93%30.27 "HgN/A
2:50 AM39 °FClear.5 mph93%30.27 "HgN/A
1:50 AM37 °FClear.7 mph100%30.27 "HgN/A
12:50 AM39 °FPassing clouds.7 mph93%30.24 "HgN/A
11:50 PM
Dec 24
39 °FPassing clouds.6 mph93%30.24 "HgN/A
10:50 PM39 °FPassing clouds.5 mph87%30.24 "HgN/A
9:50 PM37 °FClear.7 mph93%30.21 "HgN/A
8:50 PM39 °FClear.7 mph87%30.21 "HgN/A
7:50 PM37 °FClear.6 mph93%30.18 "HgN/A
6:50 PM39 °FPassing clouds.8 mph87%30.18 "HgN/A
5:50 PM39 °FClear.7 mph87%30.15 "HgN/A
4:50 PM37 °FClear.3 mph87%30.12 "HgN/A
Weather by CustomWeather, © 2014

See weather overviewHow to use our weather pages